Total_Precipitation_Accumulation
0.00 0.00 0.01 0.01 0.01 0.02 0.03 0.06 0.13 0.21 0.16 0.24 0.32 0.42 0.56 0.71 0.93 0.95 1.01 1.08 1.26 1.58 1.99 2.55 3.13 3.66 4.31 4.97 5.42 5.32 4.66 3.99 3.24 2.64 2.11 1.88 1.66 1.44 1.27 1.17 1.01 0.92 0.80 0.72
0.01 0.03 0.03 0.02 0.02 0.03 0.04 0.07 0.13 0.17 0.14 0.14 0.25 0.50 0.64 0.73 0.88 0.83 0.84 0.78 0.94 1.35 1.94 2.60 3.17 3.42 3.37 3.51 3.62 3.14 2.87 2.63 2.17 1.86 1.61 1.39 1.30 1.11 0.93 0.86 0.79 0.64 0.59 0.60
0.02 0.04 0.03 0.02 0.03 0.04 0.07 0.09 0.09 0.15 0.16 0.21 0.35 0.66 0.84 0.76 0.72 0.62 0.63 0.75 1.20 1.62 2.01 2.46 2.61 2.63 2.52 2.43 2.32 1.97 1.78 1.87 1.74 1.63 1.51 1.35 1.31 1.19 0.94 0.75 0.66 0.54 0.45 0.45
0.01 0.03 0.03 0.04 0.04 0.04 0.07 0.06 0.04 0.04 0.12 0.34 0.50 0.89 1.03 0.91 0.80 0.56 0.57 0.90 1.43 1.73 1.97 1.92 1.54 1.40 1.53 1.59 1.61 1.74 1.68 1.63 1.49 1.43 1.20 1.00 0.88 0.76 0.64 0.59 0.55 0.52 0.44 0.39
0.03 0.03 0.03 0.04 0.04 0.03 0.04 0.04 0.03 0.05 0.15 0.39 0.65 1.05 1.22 0.96 0.76 0.52 0.42 0.53 0.90 1.14 1.05 0.82 0.70 0.74 0.94 1.16 1.38 1.71 1.70 1.51 1.36 1.27 1.17 1.13 0.99 0.88 0.73 0.66 0.65 0.60 0.55 0.46
0.04 0.04 0.04 0.03 0.03 0.03 0.03 0.04 0.10 0.20 0.37 0.82 0.86 0.94 1.15 0.95 0.73 0.53 0.34 0.38 0.62 0.65 0.47 0.46 0.51 0.66 0.84 1.01 1.11 1.30 1.39 1.46 1.41 1.36 1.23 1.19 1.08 0.98 0.85 0.71 0.63 0.60 0.55 0.52
0.09 0.08 0.06 0.04 0.03 0.04 0.03 0.05 0.25 0.60 0.89 1.00 0.71 0.85 1.14 0.75 0.48 0.35 0.23 0.20 0.23 0.25 0.31 0.44 0.46 0.56 0.60 0.72 0.75 0.83 0.92 1.04 1.11 1.15 1.16 1.16 1.09 1.00 0.86 0.74 0.63 0.60 0.51 0.45
0.14 0.14 0.08 0.04 0.05 0.05 0.04 0.03 0.10 0.21 0.31 0.49 0.64 1.04 1.10 0.68 0.33 0.18 0.11 0.08 0.10 0.13 0.15 0.18 0.22 0.26 0.32 0.45 0.56 0.61 0.66 0.68 0.68 0.70 0.81 0.91 0.88 0.83 0.78 0.78 0.64 0.57 0.54 0.50
0.04 0.04 0.04 0.04 0.05 0.03 0.03 0.03 0.04 0.05 0.08 0.30 0.71 0.97 0.83 0.47 0.27 0.17 0.12 0.08 0.07 0.07 0.06 0.08 0.11 0.16 0.23 0.29 0.39 0.49 0.51 0.51 0.52 0.56 0.61 0.63 0.65 0.68 0.69 0.67 0.58 0.50 0.54 0.51
0.02 0.02 0.03 0.03 0.03 0.04 0.04 0.03 0.03 0.05 0.10 0.23 0.53 0.97 1.07 0.67 0.37 0.22 0.17 0.11 0.07 0.08 0.06 0.06 0.08 0.12 0.17 0.21 0.31 0.42 0.43 0.41 0.45 0.52 0.55 0.51 0.58 0.62 0.62 0.60 0.55 0.49 0.49 0.49
0.02 0.01 0.02 0.03 0.04 0.06 0.05 0.04 0.05 0.06 0.07 0.15 0.38 0.60 0.55 0.50 0.36 0.23 0.17 0.11 0.08 0.08 0.08 0.07 0.07 0.10 0.12 0.16 0.23 0.31 0.37 0.36 0.36 0.41 0.47 0.51 0.54 0.61 0.63 0.59 0.61 0.55 0.52 0.50
0.02 0.01 0.02 0.04 0.06 0.06 0.07 0.07 0.07 0.08 0.08 0.10 0.19 0.30 0.30 0.29 0.33 0.33 0.21 0.13 0.11 0.14 0.13 0.09 0.09 0.11 0.10 0.13 0.19 0.25 0.27 0.30 0.31 0.37 0.46 0.48 0.49 0.54 0.60 0.57 0.58 0.60 0.59 0.57
0.02 0.01 0.03 0.10 0.15 0.14 0.10 0.09 0.08 0.08 0.08 0.08 0.18 0.30 0.28 0.20 0.21 0.23 0.19 0.23 0.19 0.18 0.17 0.12 0.10 0.12 0.11 0.12 0.16 0.20 0.23 0.29 0.31 0.36 0.45 0.50 0.46 0.46 0.51 0.54 0.54 0.56 0.58 0.62
0.02 0.02 0.02 0.08 0.16 0.20 0.18 0.14 0.10 0.06 0.05 0.06 0.09 0.20 0.18 0.23 0.28 0.23 0.21 0.25 0.23 0.13 0.12 0.12 0.11 0.12 0.17 0.16 0.19 0.22 0.28 0.30 0.34 0.40 0.45 0.51 0.49 0.49 0.52 0.57 0.60 0.61 0.62 0.67
0.02 0.02 0.02 0.02 0.05 0.11 0.17 0.16 0.11 0.06 0.04 0.06 0.06 0.10 0.11 0.15 0.22 0.27 0.26 0.25 0.26 0.20 0.18 0.16 0.17 0.17 0.18 0.21 0.26 0.33 0.42 0.43 0.46 0.59 0.66 0.71 0.69 0.69 0.71 0.73 0.70 0.73 0.74 0.76
0.04 0.04 0.03 0.03 0.05 0.08 0.10 0.13 0.09 0.06 0.05 0.05 0.06 0.09 0.12 0.20 0.28 0.29 0.25 0.25 0.25 0.27 0.24 0.22 0.22 0.24 0.22 0.25 0.31 0.38 0.46 0.52 0.64 0.89 1.00 1.00 1.02 1.01 1.00 0.96 0.90 0.93 0.99 1.07
0.11 0.09 0.07 0.05 0.07 0.08 0.13 0.11 0.10 0.08 0.07 0.07 0.09 0.14 0.18 0.29 0.42 0.42 0.36 0.29 0.29 0.28 0.30 0.29 0.30 0.35 0.34 0.35 0.38 0.41 0.45 0.55 0.71 0.86 0.98 1.07 1.09 1.08 1.14 1.15 1.15 1.14 1.18 1.20
0.19 0.19 0.15 0.10 0.10 0.17 0.15 0.12 0.13 0.12 0.12 0.14 0.22 0.27 0.29 0.29 0.33 0.35 0.32 0.32 0.34 0.34 0.37 0.40 0.40 0.41 0.45 0.48 0.48 0.54 0.66 0.75 0.84 0.93 1.00 1.14 1.19 1.20 1.22 1.18 1.14 1.08 1.08 1.06
0.24 0.27 0.24 0.21 0.19 0.18 0.16 0.18 0.20 0.19 0.23 0.26 0.35 0.45 0.48 0.43 0.44 0.48 0.43 0.41 0.40 0.42 0.44 0.46 0.52 0.53 0.58 0.66 0.67 0.68 0.78 0.91 1.00 1.05 1.15 1.24 1.29 1.34 1.26 1.16 1.13 1.04 1.00 0.90
0.29 0.32 0.38 0.32 0.34 0.33 0.24 0.28 0.27 0.29 0.44 0.42 0.47 0.57 0.64 0.65 0.76 0.77 0.59 0.52 0.47 0.45 0.46 0.52 0.61 0.65 0.66 0.75 0.82 0.83 0.86 0.91 0.98 1.01 1.07 1.13 1.19 1.30 1.33 1.25 1.20 1.15 1.12 1.02
0.41 0.44 0.41 0.41 0.43 0.37 0.34 0.32 0.33 0.56 0.70 0.64 0.62 0.60 0.67 0.75 0.71 0.64 0.53 0.49 0.48 0.44 0.44 0.47 0.53 0.63 0.68 0.74 0.81 0.88 0.86 0.84 0.84 0.82 0.79 0.85 0.98 1.06 1.11 1.14 1.15 1.20 1.21 1.16
0.57 0.61 0.58 0.53 0.65 0.69 0.51 0.41 0.54 0.72 0.69 0.70 0.65 0.57 0.59 0.66 0.66 0.63 0.54 0.49 0.45 0.39 0.39 0.43 0.48 0.56 0.64 0.73 0.85 0.93 0.89 0.85 0.84 0.85 0.86 0.91 0.97 0.95 0.90 0.96 1.01 1.08 1.13 1.10
0.72 0.76 0.75 0.74 0.83 0.75 0.58 0.57 0.60 0.60 0.64 0.60 0.60 0.61 0.59 0.59 0.60 0.55 0.46 0.43 0.44 0.38 0.34 0.34 0.37 0.46 0.57 0.73 0.86 0.94 0.92 0.95 0.97 0.95 0.98 1.01 1.03 1.01 0.98 0.96 0.93 0.93 0.90 0.83
0.75 0.64 0.74 0.86 0.92 0.81 0.68 0.60 0.57 0.58 0.58 0.58 0.58 0.63 0.64 0.59 0.55 0.53 0.47 0.38 0.37 0.34 0.29 0.29 0.31 0.37 0.46 0.55 0.63 0.74 0.77 0.83 0.91 0.92 0.85 0.78 0.78 0.79 0.82 0.86 0.83 0.82 0.78 0.73
0.71 0.68 0.75 0.93 1.07 1.02 0.85 0.68 0.61 0.67 0.68 0.66 0.65 0.61 0.59 0.60 0.62 0.64 0.56 0.42 0.32 0.31 0.33 0.34 0.35 0.39 0.42 0.45 0.49 0.56 0.65 0.74 0.85 0.88 0.84 0.79 0.75 0.74 0.74 0.78 0.79 0.74 0.72 0.65
0.56 0.63 0.75 0.95 0.99 1.05 0.98 0.77 0.72 0.79 0.83 0.78 0.72 0.67 0.62 0.63 0.62 0.53 0.46 0.38 0.31 0.32 0.38 0.43 0.45 0.45 0.43 0.43 0.47 0.52 0.62 0.72 0.83 0.85 0.76 0.72 0.72 0.73 0.73 0.71 0.73 0.68 0.57 0.54